Flag for Japan Weather past 2 weeks in Kitakyushu, Japan

Now
61 °F

Sprinkles. Fog.


Feels Like: 61 °F
Forecast: 55 / 64 °F
Wind: 7 mph from North

Location: Kitakyushu Airport

Current Time: Apr 20, 2015 at 6:22:25 AM

Latest Report: Apr 20, 2015 at 6:00 AM


Visibility: 2 mi

Pressure: 29.53 "Hg

Humidity: 100%

Dew point: 61 °F

Location of KitakyushuLocation

Historic Weather in Kitakyushu — Graph

°F

Kitakyushu temperature yesterday

Maximum temperature yesterday: 61 °F (at 11:00 PM)
Minimum temperature yesterday: 57 °F (at 12:00 AM)
Average temperature yesterday: 58 °F

Past Weeks' High & Low Weather Summary

 TemperatureHumidityPressure
High70 °F (Apr 16, 5:00 PM)100% (Apr 5, 5:00 AM)30.27 "Hg (Apr 5, 5:00 AM)
Low46 °F (Apr 9, 2:00 AM)31% (Apr 17, 11:00 AM)29.53 "Hg (Apr 20, 2:00 AM)
Average56 °F79%30.00 "Hg
* Reported Apr 5 5:00 AM — Apr 20 5:00 AM, Kitakyushu, Weather by CustomWeather, © 2015

Note: Actual official high and low records may vary slightly from our data, if they occured in-between our weather recording intervals... More about our weather records

Advertising

Kitakyushu weather history for previous 24 hours

 ConditionsComfort  
Time TempWeatherWind HumidityBarometerVisibility
5:00 AM
Mon, Apr 20
59 °FSprinkles. Fog.7 mph100%29.53 "Hg1 mi
4:00 AM61 °FSprinkles. Partly cloudy.5 mph100%29.53 "Hg5 mi
3:00 AM63 °FSprinkles. Partly cloudy.2 mph100%29.53 "HgN/A
2:00 AM63 °FPassing clouds.10 mph100%29.53 "HgN/A
1:04 AM61 °FSprinkles. Fog.9 mph100%29.59 "Hg3 mi
1:00 AM61 °FSprinkles. Fog.10 mph100%29.59 "Hg2 mi
12:00 AM61 °FSprinkles. Fog.8 mph100%29.62 "Hg2 mi
11:00 PM
Sun, Apr 19
61 °FSprinkles. Fog.7 mph100%29.68 "Hg2 mi
10:00 PM59 °FSprinkles. Fog.7 mph100%29.68 "Hg1 mi
9:00 PM59 °FSprinkles. Fog.13 mph100%29.71 "Hg1 mi
8:00 PM59 °FSprinkles. Fog.3 mph100%29.71 "Hg1 mi
7:00 PM59 °FSprinkles. Fog.3 mph100%29.71 "Hg1 mi
6:00 PM59 °FSprinkles. Fog.8 mph100%29.74 "Hg2 mi
5:00 PM59 °FSprinkles. Fog.6 mph100%29.77 "Hg2 mi
4:00 PM59 °FSprinkles. Fog.5 mph100%29.77 "Hg2 mi
3:00 PM59 °FSprinkles. Broken clouds.3 mph100%29.80 "Hg4 mi
2:00 PM59 °FSprinkles. Partly sunny.3 mph100%29.83 "Hg4 mi
1:00 PM59 °FSprinkles. Fog.9 mph94%29.86 "Hg3 mi
12:00 PM59 °FSprinkles. Broken clouds.7 mph100%29.89 "Hg4 mi
11:00 AM59 °FSprinkles. Broken clouds.9 mph100%29.89 "Hg5 mi
10:00 AM59 °FPartly sunny.3 mph94%29.92 "Hg5 mi
9:00 AM59 °FFog.6 mph100%29.95 "Hg3 mi
8:00 AM57 °FFog.5 mph100%29.95 "Hg3 mi
7:00 AM57 °FSprinkles. Broken clouds.8 mph100%29.95 "Hg4 mi
6:00 AM57 °FLight rain. Partly sunny.2 mph100%29.95 "Hg3 mi
Weather by CustomWeather, © 2015

See weather overviewHow to use our weather pages